User: anonymous   Login
Location: Unspecified
(0.0000°N, 0.0000°E)
Time: 08:31:52
(UTC+00:00)
Language:

GEOEYE 1 - Orbit

View from above orbital plane
View from above orbital plane
View from above satellite
View from above satellite

Ground track
Ground track

The orbit data is extracted from the following two-line orbital elements,

1 33331U 08042A   14296.72258628  .00000837  00000-0  16778-3 0  7368
2 33331 098.1275 010.0378 0010717 068.3814 291.8523 14.64226187327522
Epoch (UTC): 23 October 2014 17:20:31
Eccentricity: 0.0010717
inclination: 98.1275°
perigee height: 672 km
apogee height: 687 km
right ascension of ascending node: 10.0378°
argument of perigee: 68.3814°
revolutions per day: 14.64226187
mean anomaly at epoch: 291.8523°
orbit number at epoch: 32752

The dashed part of the orbit path shows where the satellite is in the earth's shadow,  

DLR